Weather observations for the past three days for
Emporia, Emporia-Greensville Regional Airport
Imperial (Metric)
Date Time (edt) Wind (mph) Vis. (mi.) Weather Sky Cond. Temperature (ºF) Relative Humidity Wind Chill (°F) Heat Index (°F) Pressure Precipitation (in)
Air Dwpt 6 hour altimeter (in) sea level (mb) 1 hr 3 hr 6 hr
Max. Min.
14 01:35 Calm 0.50 Fog VV005 72.1 72.1 100% 30.12 0.0
14 01:15 Calm 4.00 Fog/Mist CLR 72.3 72.3 100% 30.12 0.0
14 00:55 Calm 3.00 Fog/Mist CLR 72.5 72.5 100% 30.12 0.0
14 00:35 Calm 5.00 Fog/Mist CLR 72.9 72.9 100% 30.13 0.0
14 00:15 Calm 2.00 Fog/Mist CLR 73.4 73.2 99% 30.13 0.0
13 23:55 Calm 4.00 Fog/Mist CLR 73.6 73.4 99% 30.13 0.0
13 23:35 Calm 10.00 Fair CLR 73.4 73 99% 30.13 0.0
13 23:15 Calm 10.00 Fair CLR 73.8 73.6 99% 30.13 0.0
13 22:55 Calm 7.00 Fair CLR 74.3 73.9 99% 30.13 0.0
13 22:35 Calm 7.00 Fair CLR 75 74.3 98% 73 30.13 0.0
13 22:15 Calm 5.00 Fog/Mist CLR 75.2 74.3 97% 73 30.13 0.0
13 21:55 Calm 7.00 Fair CLR 76.5 74.7 94% 77 30.13 0.0
13 21:35 Calm 10.00 Fair CLR 75.7 74.5 96% 75 30.13 0.0
13 21:15 Calm 7.00 Fair CLR 77 75.2 94% 78 30.13 0.0
13 20:55 Calm 10.00 Fair CLR 77.4 74.8 92% 79 30.12 0.0
13 20:35 Calm 10.00 Fair CLR 80.4 75 84% 86 30.12 0.0
13 20:15 Calm 10.00 Fair CLR 82.9 74.3 75% 90 30.12 0.0
13 19:55 Calm 10.00 Fair CLR 84.6 74.5 88.2 83.5 72% 92 30.12 0.0
13 19:35 Calm 10.00 Fair CLR 85.1 73.4 68% 92 30.11 0.0
13 19:15 Calm 10.00 Fair CLR 86 73.2 66% 93 30.11 0.0
13 18:55 Calm 10.00 Fair CLR 86 72.7 65% 93 30.1 0.0
13 18:35 Calm 10.00 Partly Cloudy SCT035 86.9 72.5 62% 94 30.1 0.0
13 18:15 Calm 10.00 Mostly Cloudy SCT035 BKN044 86.9 73.2 64% 94 30.1 0.0
13 17:55 Calm 10.00 Mostly Cloudy BKN037 BKN042 87.1 73.9 65% 95 30.1 0.0
13 17:35 Calm 10.00 Partly Cloudy SCT035 87.1 73.4 64% 95 30.1 0.0
13 17:15 Calm 10.00 Mostly Cloudy BKN035 BKN043 87.4 73.6 64% 96 30.11 0.0
13 16:55 Calm 10.00 Mostly Cloudy BKN037 BKN046 86.2 73.2 65% 94 30.12 0.0
13 16:35 Calm 10.00 Partly Cloudy SCT035 86.9 72.1 62% 94 30.12 0.0
13 16:15 Calm 10.00 Partly Cloudy SCT035 86.2 72.1 63% 93 30.12 0.0
13 15:55 Calm 10.00 Partly Cloudy SCT028 SCT033 86.5 73.8 66% 95 30.12 0.0
13 15:35 Calm 10.00 Partly Cloudy SCT030 85.3 74.3 70% 93 30.12 0.0
13 15:15 Calm 10.00 Mostly Cloudy SCT028 BKN033 84.4 73.9 71% 92 30.13 0.0
13 14:55 W 6 10.00 Mostly Cloudy BKN028 BKN033 84 74.8 74% 92 30.14 0.0
13 14:35 W 10 10.00 Mostly Cloudy SCT026 SCT031 BKN060 85.1 75.2 72% 94 30.14 0.0
13 14:15 W 7 10.00 Mostly Cloudy SCT039 SCT047 BKN060 83.7 74.3 74% 91 30.15 0.0
13 13:55 Calm 10.00 Overcast SCT023 BKN042 OVC060 83.5 75.2 84.6 75.6 76% 91 30.15 0.0
13 13:35 SW 5 10.00 Overcast SCT021 OVC042 84.2 74.8 74% 92 30.15 0.0
13 13:15 W 7 10.00 Overcast BKN021 BKN027 OVC044 83.3 74.8 76% 91 30.15 0.0
13 12:55 Calm 10.00 Mostly Cloudy SCT019 BKN025 BKN038 82.9 75.4 78% 91 30.15 0.0
13 12:35 Calm 10.00 Thunderstorm in Vicinity SCT019 BKN027 BKN034 82.2 75.7 81% 90 30.16 0.0
13 12:15 Calm 10.00 Mostly Cloudy BKN019 BKN036 BKN041 82.4 74.8 78% 89 30.16 0.0
13 11:55 Calm 10.00 Mostly Cloudy SCT019 SCT024 BKN075 83.5 75.2 76% 91 30.17 0.0
13 11:35 Calm 10.00 Mostly Cloudy SCT017 BKN024 BKN075 81.7 74.8 80% 88 30.17 0.0
13 11:15 Calm 10.00 Mostly Cloudy SCT017 SCT024 BKN029 82 75.2 80% 89 30.17 0.0
13 10:55 Calm 10.00 Overcast SCT019 OVC028 81 75.4 83% 87 30.17 0.0
13 10:35 Calm 10.00 Overcast SCT011 OVC019 78.6 75.2 89% 82 30.17 0.0
13 10:15 Calm 10.00 Overcast SCT009 OVC021 80.1 75.9 87% 85 30.17 0.0
13 09:55 Calm 10.00 Overcast SCT007 BKN023 OVC070 78.4 75.7 91% 82 30.17 0.0
13 09:35 Calm 10.00 Overcast SCT007 SCT011 OVC021 77.2 75.2 94% 78 30.17 0.0
13 09:15 Calm 10.00 Overcast BKN007 BKN011 OVC020 77.2 75.7 95% 78 30.17 0.0
13 08:55 Calm 10.00 Overcast BKN007 BKN012 OVC020 77 76.1 97% 78 30.17 0.0
13 08:35 Calm 10.00 Overcast BKN005 OVC011 76.3 75.9 99% 76 30.18 0.0
13 08:15 Calm 7.00 Overcast OVC005 75.9 75.7 99% 75 30.17 0.0
13 07:55 Calm 7.00 Overcast BKN003 OVC016 75.6 75.6 75.6 73 100% 74 30.17 0.0 0.04
13 07:35 Calm 7.00 Overcast SCT003 BKN012 OVC018 75.2 75.2 100% 73 30.17 0.0
13 07:15 Calm 5.00 Fog/Mist BKN003 OVC007 75 75 100% 72 30.16 0.0
13 06:55 Calm 4.00 Fog/Mist BKN005 BKN010 OVC018 74.7 74.7 100% 30.16 0.0
13 06:35 Calm 5.00 Fog/Mist BKN005 BKN013 OVC019 74.7 74.7 100% 30.15 0.0
13 06:15 Calm 7.00 Overcast BKN005 OVC009 74.5 74.5 100% 30.15 0.0
13 05:55 Calm 7.00 Overcast OVC005 74.5 74.5 100% 30.15 0.0
13 05:35 Calm 7.00 Overcast OVC005 74.3 74.3 100% 30.14 0.0
13 05:15 Calm 10.00 Overcast OVC005 73.9 73.9 100% 30.14 0.0
13 04:55 Calm 10.00 Overcast OVC005 73.8 73.8 100% 30.14 0.0 0.04
13 04:35 E 7 7.00 Overcast OVC005 73.6 73.6 100% 30.13 0.0
13 04:15 Calm 7.00 Overcast OVC003 73.4 73.4 100% 30.12 0.0
13 03:55 Calm 10.00 Overcast OVC003 73.4 73.4 100% 30.12 0.0 0.01
13 03:35 Calm 10.00 Overcast OVC003 73.4 73.4 100% 30.13 0.0 0.01
13 03:15 Calm 7.00 Light Rain OVC003 73.4 73.4 100% 30.13 0.0
13 02:55 Calm 10.00 Overcast OVC003 73.4 73.4 100% 30.14 0.0 0.03
13 02:35 Calm 10.00 Light Rain OVC003 73.4 73.4 100% 30.15 0.0 0.03
13 02:15 Calm 7.00 Light Rain OVC003 73 73 100% 30.16 0.0 0.03
13 01:55 Calm 3.00 Heavy Rain OVC003 73 73 73 71.8 100% 30.16 0.0 0.03 0.08
13 01:35 Calm 10.00 Overcast BKN003 OVC014 73 73 100% 30.17 0.0
13 01:15 Calm 10.00 Overcast SCT007 BKN014 OVC120 72.9 72.9 100% 30.17 0.0
13 00:55 Calm 10.00 Mostly Cloudy BKN007 BKN016 BKN120 72.7 72.7 100% 30.17 0.0
13 00:35 Calm 10.00 Overcast OVC007 72.7 72.5 99% 30.17 0.0
13 00:15 Calm 10.00 Overcast OVC007 72.7 72.5 99% 30.18 0.0
12 23:55 Calm 10.00 Overcast OVC007 72.5 72.1 99% 30.18 0.0
12 23:35 Calm 10.00 Overcast SCT004 OVC010 72.5 72.1 99% 30.18 0.0
12 23:15 Calm 10.00 Overcast SCT006 OVC014 72.1 72 99% 30.18 0.0
12 22:55 Calm 10.00 Overcast SCT006 BKN014 OVC020 72.1 72 99% 30.18 0.0 0.02 0.05
12 22:35 Calm 10.00 Light Rain SCT005 BKN016 OVC024 72 71.8 99% 30.18 0.0 0.02
12 22:15 Calm 3.00 Heavy Rain SCT005 BKN018 OVC050 72 71.8 99% 30.19 0.0 0.01
12 21:55 Calm 7.00 Light Rain BKN020 BKN028 OVC050 72 72 100% 30.19 0.0 0.01
12 21:35 Calm 10.00 Light Rain BKN024 OVC032 72 72 100% 30.17 0.0
12 21:15 Calm 10.00 Mostly Cloudy SCT024 BKN029 BKN060 72.1 72.1 100% 30.17 0.0
12 20:55 Calm 10.00 Light Rain CLR 72 72 100% 30.17 0.0 0.02
12 20:35 Calm 10.00 Light Rain BKN006 BKN032 BKN065 72.1 72.1 100% 30.17 0.0 0.02
12 20:15 Calm 10.00 Light Rain OVC006 72.3 72 99% 30.18 0.0 0.01
12 19:55 Calm 10.00 Light Rain BKN006 OVC015 72.1 72 77.9 72 99% 30.19 0.0 0.05 0.96
12 19:35 Calm 10.00 Rain SCT006 BKN040 OVC110 72.1 72 99% 30.19 0.0 0.04
12 19:15 Calm 7.00 Thunderstorm Light Rain SCT036 SCT065 SCT080 72.3 72 99% 30.19 0.0 0.01
12 18:55 Calm 5.00 Light Rain SCT011 SCT029 SCT060 72.5 72 98% 30.17 0.0 0.57
12 18:35 Calm 1.50 Heavy Rain BKN008 BKN028 OVC049 72.5 72 98% 30.15 0.0 0.55
12 18:15 Calm 3.00 Thunderstorm Heavy Rain in Vicinity BKN004 BKN022 OVC046 72.5 71.8 98% 30.19 0.0 0.18
12 17:55 Calm 7.00 Rain SCT006 BKN032 OVC045 72.5 71.6 97% 30.16 0.0 0.01
12 17:35 Calm 10.00 Mostly Cloudy SCT026 BKN030 BKN041 73 71.6 95% 30.15 0.0
12 17:15 Calm 10.00 Light Rain SCT006 BKN026 OVC120 73 71.2 94% 30.15 0.0
12 16:55 Calm 10.00 Mostly Cloudy SCT033 SCT047 BKN120 73.4 72 95% 30.15 0.0 0.01 0.33
12 16:35 Calm 10.00 Light Rain SCT048 BKN090 OVC120 72.9 71.6 96% 30.13 0.0 0.01
12 16:15 Calm 10.00 Light Rain SCT019 BKN090 OVC120 72.7 71.4 96% 30.15 0.0 0.01
12 15:55 Calm 10.00 Rain SCT019 BKN065 OVC120 72.5 71.2 96% 30.15 0.0 0.31
12 15:35 Calm 2.00 Thunderstorm Heavy Rain SCT005 BKN023 OVC060 72.5 70.5 94% 30.16 0.0 0.29
12 15:15 Calm 5.00 Heavy Rain SCT007 BKN041 OVC065 77.4 75.6 94% 79 30.17 0.0 0.06
12 14:55 Calm 10.00 Overcast SCT037 BKN065 OVC110 77.5 74.7 91% 79 30.14 0.0
12 14:35 Calm 10.00 Thunderstorm in Vicinity SCT065 BKN110 77.9 74.7 90% 80 30.13 0.0
12 14:15 Calm 10.00 Overcast SCT005 SCT032 OVC110 77.2 74.8 93% 78 30.14 0.0
12 13:55 Calm 10.00 Thunderstorm in Vicinity BKN003 BKN060 OVC120 75 74.3 75.2 70.9 98% 73 30.14 0.0 2
12 13:35 Calm 10.00 Overcast BKN003 BKN034 OVC050 73.6 73.4 99% 30.14 0.0
12 12:55 Calm 10.00 Thunderstorm SCT022 BKN045 OVC110 72.3 72.3 100% 30.16 0.0 0.03
12 12:35 Calm 5.00 Thunderstorm Light Rain SCT009 OVC025 71.8 71.6 99% 30.17 0.0 0.02
12 12:15 Calm 10.00 Thunderstorm Light Rain BKN027 BKN055 OVC110 71.2 70.9 99% 30.17 0.0
12 11:55 Calm 10.00 Thunderstorm Light Rain SCT025 SCT070 BKN110 70.9 70.7 99% 30.15 0.0 0.19
12 11:35 Calm 5.00 Thunderstorm Rain SCT065 BKN100 OVC120 71.2 70.7 98% 30.15 0.0 0.18
12 11:15 Calm 2.00 Thunderstorm Heavy Rain in Vicinity SCT024 BKN050 OVC075 71.6 70.7 97% 30.15 0.0 0.11
12 10:55 Calm 1.25 Thunderstorm Heavy Rain BKN014 BKN023 OVC031 71.6 70.7 97% 30.16 0.0 0.8 1.74
12 10:35 S 3 G 22 2.50 Thunderstorm Heavy Rain SCT011 BKN016 OVC030 72.3 71.2 96% 30.16 0.0 0.28
12 10:15 Calm 7.00 Thunderstorm Light Rain in Vicinity BKN015 OVC020 74.1 73.9 99% 30.13 0.0 0.02
12 09:55 Calm 7.00 Thunderstorm Light Rain in Vicinity OVC015 74.8 74.7 99% 30.14 0.0 0.68
12 09:35 Calm 7.00 Thunderstorm Light Rain BKN015 BKN021 OVC028 75.2 75 99% 73 30.13 0.0 0.67
12 09:15 Calm 1.50 Thunderstorm Heavy Rain in Vicinity SCT004 BKN013 OVC021 74.8 74.7 99% 30.12 0.0 0.42
12 08:55 Calm 1.75 Thunderstorm Heavy Rain SCT004 OVC012 75.2 74.7 98% 73 30.12 0.0 0.17
12 08:35 Calm 7.00 Thunderstorm Light Rain in Vicinity SCT008 BKN012 OVC029 75 74.7 99% 72 30.12 0.0 0.02
12 08:15 Calm 10.00 Light Drizzle SCT010 BKN019 OVC070 74.8 74.7 99% 30.12 0.0
12 07:55 Calm 10.00 Overcast SCT005 BKN018 OVC090 75.2 75.2 75.2 74.3 100% 73 30.1 0.0 0.01 0.11
12 07:35 Calm 10.00 Thunderstorm in Vicinity BKN005 BKN032 OVC095 75.2 75.2 100% 73 30.1 0.0 0.01
12 07:15 Calm 10.00 Thunderstorm in Vicinity BKN005 OVC009 75.2 75.2 100% 73 30.09 0.0 0.01
12 06:55 Calm 7.00 Thunderstorm Light Rain in Vicinity BKN007 BKN010 OVC014 75.2 75.2 100% 73 30.08 0.0 0.01
12 06:35 Calm 10.00 Thunderstorm Light Rain in Vicinity SCT009 BKN014 OVC022 75.2 75.2 100% 73 30.07 0.0 0.01
12 06:15 Calm 10.00 Thunderstorm in Vicinity SCT008 BKN045 OVC090 75.2 75.2 100% 73 30.07 0.0 0.01
12 05:55 Calm 2.00 Thunderstorm Rain in Vicinity BKN005 BKN009 OVC031 75.2 75.2 100% 73 30.06 0.0 0.07
12 05:35 Calm 5.00 Thunderstorm in Vicinity Fog/Mist OVC005 75.2 75.2 100% 73 30.07 0.0
12 05:15 Calm 5.00 Thunderstorm in Vicinity Fog/Mist OVC007 75 75 100% 72 30.07 0.0
12 04:55 Calm 4.00 Fog/Mist BKN007 BKN015 OVC020 74.7 74.7 100% 30.07 0.0
12 04:35 Calm 5.00 Fog/Mist SCT003 BKN007 BKN015 74.7 74.7 100% 30.06 0.0
12 04:15 Calm 2.50 Thunderstorm in Vicinity Fog/Mist OVC003 74.7 74.7 100% 30.06 0.0
12 03:55 Calm 1.00 Thunderstorm in Vicinity Fog/Mist OVC003 74.7 74.7 100% 30.05 0.0
12 03:35 Calm 0.50 Thunderstorm in Vicinity Fog OVC003 74.5 74.5 100% 30.05 0.0
12 03:15 Calm 0.75 Thunderstorm in Vicinity Fog/Mist OVC003 74.5 74.5 100% 30.06 0.0
12 02:55 Calm 0.50 Thunderstorm in Vicinity Fog OVC003 74.5 74.5 100% 30.06 0.0
12 02:35 Calm 1.00 Thunderstorm Fog/Mist OVC003 74.5 74.5 100% 30.06 0.0
12 02:15 Calm 1.25 Thunderstorm in Vicinity Fog/Mist OVC003 74.3 74.3 100% 30.06 0.0
12 01:55 Calm 2.00 Thunderstorm in Vicinity Fog/Mist OVC003 74.3 74.3 75.2 74.3 100% 30.06 0.0 0.03
12 01:35 Calm 4.00 Fog/Mist OVC003 74.3 74.3 100% 30.04 0.0
12 01:15 Calm 5.00 Thunderstorm in Vicinity Fog/Mist OVC005 74.3 74.3 100% 30.04 0.0
12 00:55 Calm 5.00 Light Rain BKN005 BKN055 OVC080 74.5 74.3 99% 30.06 0.0
12 00:35 Calm 7.00 Overcast BKN003 BKN055 OVC090 74.5 74.5 100% 30.07 0.0
12 00:15 Calm 5.00 Fog/Mist OVC003 74.5 74.3 99% 30.07 0.0
11 23:55 Calm 5.00 Fog/Mist OVC003 74.5 74.3 99% 30.07 0.0 0.02
11 23:35 Calm 4.00 Light Rain OVC003 74.3 74.3 100% 30.06 0.0 0.01
11 23:15 Calm 7.00 Light Rain BKN003 BKN039 OVC070 74.3 73.9 99% 30.07 0.0
11 22:55 Calm 5.00 Light Rain OVC005 74.3 73.8 98% 30.06 0.0 0.01 0.01
11 22:35 Calm 7.00 Overcast OVC005 74.3 73.6 98% 30.06 0.0
11 22:15 Calm 10.00 Overcast BKN005 BKN075 OVC090 74.3 73.4 97% 30.06 0.0
11 21:55 Calm 7.00 Overcast SCT005 SCT065 OVC090 74.5 73.4 96% 30.05 0.0
11 21:35 Calm 7.00 Overcast SCT006 BKN065 OVC090 74.3 73.2 96% 30.04 0.0
11 21:15 Calm 10.00 Overcast BKN055 OVC095 74.5 73.4 96% 30.04 0.0
11 20:55 Calm 10.00 Overcast BKN055 BKN070 OVC095 74.7 73.4 96% 30.04 0.0
11 20:35 Calm 10.00 Overcast BKN048 BKN055 OVC095 74.8 73.4 95% 30.04 0.0
11 20:15 Calm 10.00 Light Rain BKN046 OVC085 75 73.6 95% 73 30.03 0.0
11 19:55 Calm 10.00 Overcast SCT055 SCT070 OVC085 75.4 73.4 86.7 75.4 94% 74 30.04 0.0
11 19:35 Calm 10.00 Overcast SCT007 BKN014 OVC070 75.6 73.4 93% 75 30.03 0.0
11 19:15 Calm 10.00 Overcast SCT009 OVC014 76.1 74.3 94% 76 30.02 0.0
11 18:55 Calm 10.00 Overcast OVC012 76.6 74.3 93% 77 30.02 0.0
11 18:35 Calm 10.00 Overcast OVC012 77.5 73.4 87% 79 30.01 0.0
11 18:15 Calm 10.00 Mostly Cloudy BKN012 78.3 73.6 86% 81 30.01 0.0
11 17:55 Calm 10.00 Overcast OVC012 78.4 73.6 85% 81 30.01 0.0
11 17:35 Calm 10.00 Overcast BKN014 OVC028 78.8 73.4 84% 82 30.01 0.0
11 17:15 Calm 10.00 Overcast SCT019 BKN027 OVC042 79 73 82% 82 30.02 0.0
11 16:55 Calm 10.00 Thunderstorm in Vicinity SCT027 SCT036 BKN042 79.5 73.4 82% 83 30.02 0.0
11 16:35 Calm 10.00 Thunderstorm in Vicinity SCT036 SCT060 BKN090 81 73.6 78% 86 30.02 0.0
11 16:15 NE 7 10.00 Thunderstorm in Vicinity BKN060 BKN090 82.6 73 73% 88 30.02 0.0
11 15:55 Calm 10.00 Thunderstorm in Vicinity SCT042 SCT048 BKN050 82.9 73 72% 89 30.01 0.0
11 15:35 Calm 10.00 Thunderstorm in Vicinity SCT040 OVC055 81.9 73.4 76% 87 30.01 0.0
11 15:15 Calm 10.00 Overcast BKN038 OVC049 84.4 74.1 71% 92 30 0.0
11 14:55 NE 6 10.00 Mostly Cloudy SCT038 BKN047 85.3 73.9 69% 93 29.99 0.0
11 14:15 Calm 10.00 Overcast SCT031 BKN047 OVC090 85.6 72.5 65% 92 29.99 0.0
11 13:55 Calm 10.00 Overcast OVC032 84.2 72.5 85.5 74.8 68% 90 30 0.0
11 13:35 Calm 10.00 Overcast OVC030 84.2 71.4 66% 89 30.01 0.0
11 13:15 Calm 10.00 Overcast OVC032 83.8 71.6 67% 89 30.01 0.0
11 12:55 Calm 10.00 Overcast BKN034 OVC040 84.7 71.4 64% 90 30.01 0.0
11 12:35 Calm 10.00 Overcast SCT034 OVC085 84.9 70.9 63% 90 30 0.0
11 12:15 Calm 10.00 Overcast SCT036 OVC085 85.1 71.4 64% 91 30 0.0
11 11:55 Calm 10.00 Overcast SCT034 SCT043 OVC085 83.5 70.3 65% 88 30 0.0
11 11:35 Calm 10.00 Overcast SCT034 BKN043 OVC085 82.4 69.4 65% 86 30 0.0
11 11:15 Calm 10.00 Overcast OVC036 82.6 69.1 64% 86 30 0.0
11 10:55 Calm 10.00 Mostly Cloudy BKN036 BKN085 82 68.5 64% 85 30 0.0
11 10:35 Calm 10.00 Partly Cloudy SCT080 83.5 69.1 62% 87 29.99 0.0
11 10:15 NW 5 10.00 Partly Cloudy SCT044 82.9 68.4 62% 86 29.99 0.0
11 09:55 Calm 10.00 Mostly Cloudy BKN042 81.9 68 63% 85 29.99 0.0
11 09:35 Calm 10.00 Overcast OVC040 79.3 68 68% 82 29.99 0.0
11 09:15 Calm 10.00 Overcast BKN040 BKN080 OVC100 78.8 68.4 70% 81 29.99 0.0
11 08:55 Calm 10.00 Overcast BKN040 OVC090 78.1 68.4 72% 80 29.98 0.0
11 08:35 Calm 10.00 Mostly Cloudy BKN090 78.3 69.8 75% 81 29.98 0.0
11 08:15 Calm 10.00 Partly Cloudy SCT100 75.6 70.5 84% 76 29.97 0.0
11 07:55 Calm 10.00 Overcast SCT042 OVC100 74.8 70.5 77.4 73 86% 29.97 0.0 0.01
11 07:35 Calm 10.00 Overcast BKN042 OVC100 74.5 71.1 89% 29.97 0.0
11 07:15 Calm 10.00 Overcast SCT042 OVC090 74.1 70.7 89% 29.96 0.0
11 06:55 Calm 10.00 Overcast SCT042 OVC090 73.4 70 89% 29.96 0.0
11 06:35 Calm 10.00 Overcast SCT042 OVC090 73.4 70 89% 29.95 0.0
11 06:15 Calm 10.00 Overcast SCT042 OVC080 73.8 70.3 89% 29.94 0.0
11 05:55 Calm 10.00 Overcast SCT042 OVC080 74.5 71.4 90% 29.94 0.0
11 05:35 Calm 4.00 Fog/Mist BKN042 BKN080 74.7 74.7 100% 29.93 0.0
11 05:15 Calm 1.50 Fog/Mist SCT046 BKN080 BKN120 75.2 75 99% 73 29.93 0.0
11 04:55 Calm 5.00 Fog/Mist SCT035 BKN046 OVC110 75.7 75.4 99% 74 29.92 0.0 0.01 0.01
11 04:35 Calm 7.00 Overcast SCT028 BKN033 OVC075 76.1 75.4 98% 75 29.92 0.0 0.01
11 04:15 Calm 5.00 Light Rain BKN028 BKN041 OVC075 76.3 75.4 97% 76 29.91 0.0
11 03:55 Calm 7.00 Overcast SCT022 BKN031 OVC038 76.1 75.4 98% 75 29.91 0.0
11 03:35 Calm 7.00 Overcast SCT020 OVC029 76.1 75.6 98% 75 29.9 0.0
11 03:15 Calm 5.00 Fog/Mist SCT029 OVC110 75.7 75.2 98% 74 29.89 0.0
11 02:35 Calm 10.00 Overcast SCT050 OVC090 76.6 75.2 95% 77 29.89 0.0
11 01:55 Calm 10.00 Overcast OVC050 77.5 75.4 88.3 77.5 93% 79 29.89 0.0
Date Time (edt) Wind (mph) Vis. (mi.) Weather Sky Cond. Air Dwpt Max. Min. Relative Humidity Wind Chill (°F) Heat Index (°F) altimeter (in) sea level (mb) 1 hr 3 hr 6 hr
6 hour
Temperature (ºF) Pressure Precipitation (in)